This is the latest recevied weather packets stored in our database for station/object KE5BM-13. If no packets are shown the sender has not sent any weather packets the latest 10 day(s).
| Time | Temp. | Humidity | Pressure | Rain* | Wind** | Luminosity | Snow |
|---|---|---|---|---|---|---|---|
| 1777673244 | 14.44° C | 59% | 1008.5 hPa | 0 mm | - | - | - |
| 1777672943 | 15° C | 59% | 1008.6 hPa | 0 mm | - | - | - |
| 1777672641 | 15° C | 58% | 1008.5 hPa | 0 mm | - | - | - |
| 1777672342 | 15.56° C | 58% | 1008.5 hPa | 0 mm | - | - | - |
| 1777672042 | 15.56° C | 58% | 1008.4 hPa | 0 mm | - | - | - |
| 1777671741 | 15.56° C | 58% | 1008.4 hPa | 0 mm | - | - | - |
| 1777671440 | 16.11° C | 55% | 1008.3 hPa | 0 mm | - | - | - |
| 1777671141 | 16.67° C | 54% | 1008.3 hPa | 0 mm | - | - | - |
| 1777670840 | 17.22° C | 52% | 1008.2 hPa | 0 mm | - | - | - |
| 1777670538 | 18.33° C | 45% | 1008.2 hPa | 0 mm | - | - | - |
| 1777670239 | 17.22° C | 51% | 1008.2 hPa | 0 mm | - | - | - |
| 1777669940 | 16.67° C | 49% | 1008.1 hPa | 0 mm | - | - | - |
| 1777669636 | 16.67° C | 48% | 1008.1 hPa | 0 mm | - | - | - |
| 1777669335 | 16.67° C | 49% | 1008.1 hPa | 0 mm | - | - | - |
| 1777669034 | 16.67° C | 49% | 1008.1 hPa | 0 mm | - | - | - |
| 1777668725 | 16.67° C | 51% | 1008.1 hPa | 0 mm | - | - | - |
| 1777668427 | 15.56° C | 47% | 1008.1 hPa | 0 mm | - | - | - |
| 1777668126 | 16.11° C | 46% | 1008 hPa | 0 mm | - | - | - |
| 1777667823 | 16.67° C | 47% | 1008 hPa | 0 mm | - | - | - |
| 1777667524 | 16.67° C | 46% | 1008 hPa | 0 mm | - | - | - |
| 1777667227 | 16.67° C | 47% | 1008 hPa | 0 mm | - | - | - |
| 1777666924 | 16.11° C | 46% | 1008 hPa | 0 mm | - | - | - |
| 1777666623 | 16.67° C | 46% | 1007.9 hPa | 0 mm | - | - | - |
| 1777666323 | 16.11° C | 49% | 1007.9 hPa | 0 mm | - | - | - |
| 1777666003 | 16.11° C | 48% | 1008 hPa | 0 mm | - | - | - |
* Rain latest hour (hover to see other rain measurements)
** Current wind speed in m/s (hover to see current wind gust speed)